Find Starlink 32495

NORAD ID: 62052 Int'l Des: 2024-216 Owner: SPXS Country: US Constellation: starlink operational
LEOCIRCULAR

現在のビュー

3D地球を読み込み中...

About Starlink 32495

Starlink 32495 (NORAD 62052) is a starlink constellation satellite (v2 mini) launched Nov 21, 2024 by SPXS of US. It operates in LEO, CIRCULAR orbit with a mass of 730.00 kg.

次回通過

Passes for default location (London). Set your location on the main map for personalized predictions.

高度履歴

Loading altitude history...

軌道要素

1 62052U 24216W 26265.27833219 .00008283 00000-0 31014-3 0 9999
2 62052 42.9978 232.8091 0000859 273.0992 86.9762 15.27583858103863
Epoch: Sep 22, 2026 • Age: 23 hours

現在のステータス

高度 491.6 km
遠地点 / 近地点 N/A
速度 7.62 km/s
衛星直下点 -32.46°S, 3.15°E
打ち上げ日 Nov 21, 2024
運用期間 1.8 years
タイプ internet

技術仕様

分類 Payload
質量 730.00 kg
乾燥質量 700.00 kg
長さ 0.30 m
スパン 29.00 m
形状 ? Box + pan
製造者 SPXS
バスタイプ Starlink V2M
フェーズステータス In Orbit
所有者/国 SPXS/US

Most Searched